Location: Hains Lake
(37.8540°N, 99.8578°W)
Time: 21:26:51
(UTC+00:00)

Vanguard 1 - Pass Details

Date: 04 December 2022
Orbit: 650 x 3831 km, 34.2° (Epoch: 05 February)

Event Time Altitude Azimuth Distance (km) Brightness Sun altitude
Rises 01:26:59 0° 203° (SSW) 4,731 14.0 -24.4°
Reaches altitude 10° 01:33:18 10° 173° (S) 3,002 12.6 -25.7°
Maximum altitude 01:35:17 11° 156° (SSE) 2,692 12.1 -26.0°
Enters shadow 01:35:27 11° 154° (SSE) 2,675 12.1 -26.1°
